• MPC Preparation (Info)

  • MPEC 2022-V119 : 2022 UE61

    The following Minor Planet Electronic Circular may be linked-to from your own Web pages, but must not otherwise be redistributed electronically.

    A form allowing access to any MPEC is at the bottom of this page.


    Read MPEC 2022-V118 Read MPEC 2022-V120


    M.P.E.C. 2022-V119                             Issued 2022 November 9, 16:09 UT
    
         The Minor Planet Electronic Circulars contain information on unusual
             minor planets, routine data on comets and natural satellites,
             and occasional editorial announcements.  They are published
        on behalf of Division F of the International Astronomical Union by the
              Minor Planet Center, Smithsonian Astrophysical Observatory,
                              Cambridge, MA 02138, U.S.A.
    			  
                 Prepared using the Tamkin Foundation Computer Network
    
                                  MPC@CFA.HARVARD.EDU
                URL https://www.minorplanetcenter.net/    ISSN 1523-6714
    
                                    2022 UE61                                
    
    
    Observations:
         K22U61E* C2022 10 17.40153802 59 26.185+10 42 21.82         21.15GVEV119G96
         K22U61E  C2022 10 17.40662802 59 30.800+10 42 31.03         21.16GVEV119G96
         K22U61E  C2022 10 17.41170802 59 35.545+10 42 39.89         20.80GVEV119G96
         K22U61E  C2022 10 17.41678602 59 40.171+10 42 48.42         21.35GVEV119G96
         K22U61E KC2022 10 17.46714803 00 26.726+10 44 11.44         21.01GVEV119I52
         K22U61E KC2022 10 17.46917103 00 28.638+10 44 14.60         20.92GVEV119I52
         K22U61E KC2022 10 17.47120703 00 30.478+10 44 18.17         21.20GVEV119I52
         K22U61E KC2022 10 17.47324003 00 31.727+10 44 19.90               VEV119I52
         K22U61E KC2022 10 18.29249003 13 08.486+11 05 10.07         21.60GVEV119I52
         K22U61E KC2022 10 18.29463103 13 10.016+11 05 13.06         21.01GVEV119I52
         K22U61E KC2022 10 18.29677703 13 11.514+11 05 16.40         21.18GVEV119I52
    
    Observer details:
    G96 Mt. Lemmon Survey.  Observer A. Serrano.  Measurers E. J. Christensen, D.
        Fay, J. B. Fazekas, D. C. Fuls, A. R. Gibbs, A. D. Grauer, H. Groeller, J.
        K. Hogan, R. A. Kowalski, S. M. Larson, G. J. Leonard, D. Rankin, R. L.
        Seaman, A. Serrano, F. C. Shelly, K. W. Wierzchos.  1.5-m reflector + 10K
        CCD.
    I52 Steward Observatory, Mt. Lemmon Station.  Observers R. A. Kowalski, D.
        Rankin.  Measurers E. J. Christensen, D. Fay, J. B. Fazekas, D. C. Fuls,
        A. R. Gibbs, A. D. Grauer, H. Groeller, J. K. Hogan, R. A. Kowalski, S. M.
        Larson, G. J. Leonard, D. Rankin, R. L. Seaman, A. Serrano, F. C. Shelly,
        K. W. Wierzchos.  1.0-m prime focus + CCD.
    
    Orbital elements:
    2022 UE61                                                Earth MOID = 0.0044 AU
    Epoch 2022 Aug. 9.0 TT = JDT 2459800.5                  Veres                   
    M 343.24293              (2000.0)            P               Q                  
    n   0.34163994     Peri.  159.81016     +0.99990997     +0.00449690             
    a   2.0265483      Node   199.94479     -0.00880767     +0.93075433             
    e   0.5110786      Incl.    2.12402     +0.01012337     +0.36561750             
    P   2.88           H   28.01          G   0.15           U   9                  
    Residuals in seconds of arc
    221017 G96  0.6+  0.2-    221017 I52  0.1+  0.2-    221018 I52  0.1-  0.1-
    221017 G96  0.6-  0.1+    221017 I52  0.7+  0.2-    221018 I52  0.2+  0.1-
    221017 G96  0.2+  0.2+    221017 I52  0.0   0.1+    221018 I52  0.1-  0.2+
    221017 G96  0.7-  0.0     221017 I52 (9.4-  1.4-)
    
    Ephemeris:
    2022 UE61                a,e,i = 2.03, 0.51, 2                   q = 0.9908
    Date    TT    R. A. (2000) Decl.     Delta      r    Elong.  Phase     V
    2022 10 10    20 18 03.0 -08 42 56   0.01548 1.0037   108.1    71.1    21.5
    ...
    2022 10 25    03 57 35.6 +12 06 11   0.06107 1.0481   150.4    28.0    23.3
    ...
    2022 11 02    04 11 08.3 +12 24 49   0.09915 1.0829   154.7    23.1    24.3
    ...
    2022 11 08    04 13 51.2 +12 35 42   0.1294  1.1131   159.6    18.1    24.7
    2022 11 09    04 14 00.5 +12 37 35   0.1346  1.1185   160.5    17.2    24.8
    2022 11 10    04 14 06.2 +12 39 31   0.1399  1.1239   161.4    16.3    24.9
    ...
    2022 11 16    04 13 44.0 +12 52 16   0.1729  1.1580   166.7    11.4    25.2
    ...
    2022 11 24    04 12 02.0 +13 13 32   0.2214  1.2071   171.9     6.6    25.6
    ...
    2022 12 09    04 10 09.9 +14 09 08   0.3303  1.3069   165.1    11.2    26.9
    
    M. P. C. Staff               (C) Copyright 2022 MPC           M.P.E.C. 2022-V119
    


    Read MPEC 2022-V118 Read MPEC 2022-V120


    MPEC number:

    Enter an MPEC number in one of the following forms:

    • 1997-B01 (the full form)
    • J97B01 (the packed version of the full form)
    • B01 (the abbreviated form)